Find Yunhai-2 04 xing

NORAD ID: 43912 Int'l Des: 2018-112 Owner: CASC Country: CN operational
LEOCIRCULAR

Live-Position

3D-Globus wird geladen...

Über Yunhai-2 04 xing

Beschreibung wird geladen...

Nächste Überflüge

Passes for default location (London). Set your location on the main map for personalized predictions.

Höhenverlauf

Loading altitude history...

Zweizeiliger Elementsatz

1 43912U 18112D 26107.28524516 -.00000047 00000-0 44995-4 0 9998
2 43912 50.0093 185.9523 0015540 132.6159 227.6069 14.29007295378877
Epoch: 17. Apr. 2026 • Age: 13 hours

Aktueller Status

Höhe 820.3 km
Geschwindigkeit 7.44 km/s
Subsatellitenpunkt -50.11°S, 46.96°W
Startdatum 29. Dez. 2018
Alter 7.2 years
Typ other

Technische Details

Klassifizierung Payload
Masse 100.00 kg
Trockenmasse 100.00 kg
Gesamtmasse 100.00 kg
Länge 0.50 m
Durchmesser 0.20 m
Spannweite 1.00 m
Form Box + 2 pan
Hersteller DFHS
Bus-Typ YH-2
Phasenstatus In Orbit
Besitzer/Staat CASC/CN

Most Searched